World > North America > United States > Texas > Dumas   City of Dumas, Texas

Dumas, TX Hourly Weather Updates

Feedback E-mail the Weather

Quick Clicks

Dumas, TX Weather Maps

°F °C°F °C
Dumas Weather Map
UTC Time: 4/14/2024, 17:48
Your Time:

Dumas, TX Regional Weather

Expires:202404141800;;736121
ASUS44 KSJT 141710
RWRSJT
WEST CENTRAL TEXAS REGIONAL WEATHER ROUNDUP
NATIONAL WEATHER SERVICE SAN ANGELO TX
1200 PM CDT SUN APR 14 2024

NOTE: "FAIR" INDICATES FEW OR NO CLOUDS BELOW 12,000 FEET WITH NO
SIGNIFICANT WEATHER AND/OR OBSTRUCTIONS TO VISIBILITY.


TXZ001-004-007-008-010-012-014-016-OKZ002-141800-
TEXAS PANHANDLE/OKLAHOMA PANHANDLE
  
CITY           SKY/WX    TMP DP  RH WIND       PRES   REMARKS
AMARILLO       SUNNY     83  22  10 W16G25    29.99S TC  28           
BORGER         SUNNY     84  30  14 W12G18    29.97S TC  29           
CANADIAN       SUNNY     84  33  16 NW8       29.91S TC  29           
DALHART        SUNNY     78  28  16 CALM      30.01S TC  26           
DUMAS          SUNNY     80  25  13 SW10      29.99F TC  27           
GUYMON         NOT AVBL                                               
HEREFORD       SUNNY     82  21  10 W21       30.03F TC  28           
PAMPA          SUNNY     86  33  15 W15G28    29.98S TC  30           
PERRYTON       SUNNY     38   3  22 CALM      29.93S TC   4           
$$


SKY/WX - Weather  TMP - Temperature  DP - Dew Point  RH - Humidity
WIND - Wind Direction/Speed PRES - Barometric Pressure VSB - Visibility
WCI - Wind Chill Index E13G22 Wind - East Wind 13 mph/Gusts of 22 mph

Trending Headlines

Trending Entertainment Headlines

Dumas Radar Loop

Use the map search tool if you want to place a location marker on the radar map...

Dumas Quick Facts

National Two Day Weather Forecast


E-mail the Dumas Weather Forecast

Voice your opinion or tell us about page issues...